Back to catalog

KUIPER-00483

AliveCommunicationsLEO
NORAD 68878·PAYLOAD·🇺🇸 United States

Launched Apr 28, 2026 from Cape Canaveral Space Force Station

Loading…

Next Passes (next 24 hours)

TLE

FreshSource: CelesTrak SupGP

Epoch: Sep 14, 2026, 13:52 UTC

1 68878C 26095Q   26257.57812500 -.00001274  00000+0 -16657-3 0  2579
2 68878  51.8983 217.8390 0001779 332.7264  60.2242 14.79981179    17

Track KUIPER-00483 in real time with AllMySat

Download on the App Store